TimeEST,TemperatureF,Dew PointF,Humidity,Sea Level PressureIn,VisibilityMPH,Wind Direction,Wind SpeedMPH,Gust SpeedMPH,PrecipitationIn,Events,Conditions,WindDirDegrees,DateUTC
12:15 AM,37.4,32.0,81,29.73,10.0,SSE,15.0,19.6,N/A,Rain,Rain,160,2012-12-29 05:15:00
12:35 AM,37.4,32.0,81,29.72,10.0,SSE,10.4,18.4,N/A,,Light Drizzle,160,2012-12-29 05:35:00
12:55 AM,37.4,32.0,81,29.70,10.0,South,12.7,-,N/A,,Overcast,170,2012-12-29 05:55:00
1:15 AM,37.4,32.0,81,29.70,10.0,South,12.7,20.7,N/A,,Drizzle,170,2012-12-29 06:15:00
1:35 AM,37.4,33.8,87,29.67,10.0,SSE,13.8,-,N/A,,Drizzle,150,2012-12-29 06:35:00
1:55 AM,37.4,35.6,93,29.65,10.0,SSE,11.5,18.4,N/A,,Overcast,160,2012-12-29 06:55:00
2:15 AM,37.4,35.6,93,29.66,10.0,South,9.2,16.1,N/A,,Overcast,170,2012-12-29 07:15:00
2:35 AM,37.4,35.6,93,29.65,10.0,South,9.2,18.4,N/A,,Overcast,170,2012-12-29 07:35:00
2:55 AM,39.2,35.6,87,29.65,10.0,South,11.5,20.7,N/A,,Overcast,190,2012-12-29 07:55:00
3:15 AM,39.2,35.6,87,29.67,10.0,South,6.9,-,N/A,,Drizzle,180,2012-12-29 08:15:00
3:35 AM,39.2,37.4,93,29.68,10.0,WSW,5.8,-,N/A,Rain,Light Rain,240,2012-12-29 08:35:00
3:55 AM,37.4,37.4,100,29.68,10.0,WSW,6.9,-,N/A,Rain,Rain,240,2012-12-29 08:55:00
4:15 AM,37.4,37.4,100,29.67,7.0,SW,6.9,-,N/A,,Drizzle,230,2012-12-29 09:15:00
4:35 AM,37.4,37.4,100,29.68,3.0,WSW,8.1,-,N/A,,Drizzle,240,2012-12-29 09:35:00
4:55 AM,37.4,37.4,100,29.69,5.0,SW,12.7,-,N/A,Rain,Light Rain,230,2012-12-29 09:55:00
5:15 AM,35.6,35.6,100,29.69,5.0,SW,9.2,-,0.01,Rain,Light Rain,220,2012-12-29 10:15:00
5:35 AM,35.6,35.6,100,29.69,4.0,SW,9.2,-,0.02,Rain,Light Rain,220,2012-12-29 10:35:00
5:55 AM,35.6,35.6,100,29.69,7.0,SSW,6.9,-,0.02,Rain,Light Rain,210,2012-12-29 10:55:00
6:15 AM,35.6,35.6,100,29.69,10.0,SW,13.8,18.4,N/A,Rain,Light Rain,220,2012-12-29 11:15:00
6:35 AM,35.6,35.6,100,29.68,10.0,SW,19.6,26.5,N/A,Rain,Light Rain,220,2012-12-29 11:35:00
6:55 AM,35.6,35.6,100,29.68,10.0,SW,15.0,23.0,0.01,Rain,Light Rain,230,2012-12-29 11:55:00
7:15 AM,35.6,35.6,100,29.69,7.0,SW,18.4,24.2,N/A,Rain,Light Rain,230,2012-12-29 12:15:00
7:35 AM,35.6,35.6,100,29.69,10.0,WSW,13.8,-,N/A,,Overcast,240,2012-12-29 12:35:00
7:55 AM,35.6,35.6,100,29.69,4.0,WSW,12.7,-,N/A,Rain,Light Rain,240,2012-12-29 12:55:00
8:15 AM,35.6,35.6,100,29.70,5.0,WSW,13.8,19.6,N/A,Rain,Rain,240,2012-12-29 13:15:00
8:35 AM,33.8,33.8,100,29.70,2.0,SW,11.5,20.7,N/A,Rain,Light Rain,230,2012-12-29 13:35:00
8:55 AM,33.8,33.8,100,29.72,1.5,West,9.2,-,N/A,Snow,Light Snow,270,2012-12-29 13:55:00
9:15 AM,33.8,33.8,100,29.73,10.0,West,8.1,-,N/A,,Overcast,270,2012-12-29 14:15:00
9:35 AM,35.6,35.6,100,29.74,7.0,West,13.8,19.6,0.01,Rain,Light Rain,270,2012-12-29 14:35:00
9:55 AM,35.6,35.6,100,29.74,10.0,West,11.5,-,0.01,,Overcast,270,2012-12-29 14:55:00
10:15 AM,35.6,35.6,100,29.76,1.8,West,10.4,-,N/A,Snow,Light Snow,280,2012-12-29 15:15:00
10:35 AM,35.6,35.6,100,29.77,10.0,West,12.7,18.4,N/A,,Overcast,270,2012-12-29 15:35:00
10:55 AM,35.6,33.8,93,29.77,10.0,West,11.5,20.7,N/A,,Overcast,270,2012-12-29 15:55:00
11:15 AM,33.8,33.8,100,29.78,2.5,West,11.5,19.6,N/A,Snow,Light Snow,270,2012-12-29 16:15:00
11:35 AM,33.8,33.8,100,29.78,1.5,WSW,10.4,18.4,N/A,Snow,Light Snow,250,2012-12-29 16:35:00
11:55 AM,33.8,33.8,100,29.79,10.0,West,16.1,24.2,N/A,,Overcast,270,2012-12-29 16:55:00
12:15 PM,33.8,32.0,93,29.79,2.0,West,15.0,21.9,N/A,Snow,Light Snow,280,2012-12-29 17:15:00
12:35 PM,32.0,32.0,100,29.79,2.0,West,13.8,21.9,N/A,Snow,Light Snow,280,2012-12-29 17:35:00
12:55 PM,32.0,32.0,100,29.79,7.0,West,13.8,25.3,N/A,,Overcast,270,2012-12-29 17:55:00
1:15 PM,32.0,32.0,100,29.79,10.0,WNW,16.1,21.9,N/A,,Overcast,300,2012-12-29 18:15:00
1:35 PM,32.0,32.0,100,29.79,7.0,West,15.0,21.9,N/A,,Overcast,280,2012-12-29 18:35:00
1:55 PM,32.0,32.0,100,29.79,4.0,WNW,11.5,17.3,N/A,Snow,Light Snow,300,2012-12-29 18:55:00
2:15 PM,32.0,32.0,100,29.80,2.0,West,6.9,-,N/A,Snow,Light Snow,270,2012-12-29 19:15:00
2:35 PM,32.0,32.0,100,29.81,0.8,WNW,12.7,18.4,N/A,Snow,Light Snow,290,2012-12-29 19:35:00
2:55 PM,32.0,32.0,100,29.83,5.0,West,18.4,27.6,N/A,,Overcast,280,2012-12-29 19:55:00
3:15 PM,32.0,32.0,100,29.83,5.0,WNW,12.7,19.6,N/A,,Overcast,300,2012-12-29 20:15:00
3:35 PM,32.0,32.0,100,29.84,5.0,NW,12.7,21.9,N/A,Snow,Light Snow,310,2012-12-29 20:35:00
3:55 PM,30.2,30.2,100,29.86,5.0,WNW,6.9,18.4,N/A,Snow,Light Snow,290,2012-12-29 20:55:00
4:15 PM,30.2,30.2,100,29.87,5.0,WNW,12.7,21.9,N/A,,Overcast,300,2012-12-29 21:15:00
4:35 PM,30.2,30.2,100,29.88,5.0,West,10.4,19.6,N/A,,Overcast,280,2012-12-29 21:35:00
4:55 PM,30.2,30.2,100,29.89,4.0,WNW,13.8,20.7,N/A,Snow,Light Snow,300,2012-12-29 21:55:00
5:15 PM,30.2,30.2,100,29.90,2.5,West,11.5,-,N/A,Snow,Light Snow,280,2012-12-29 22:15:00
5:35 PM,30.2,28.4,93,29.91,3.0,West,13.8,21.9,N/A,Snow,Light Snow,280,2012-12-29 22:35:00
5:55 PM,30.2,28.4,93,29.92,5.0,West,15.0,21.9,N/A,Snow,Light Snow,280,2012-12-29 22:55:00
6:15 PM,28.4,26.6,93,29.93,4.0,WNW,11.5,23.0,N/A,Snow,Light Snow,300,2012-12-29 23:15:00
6:35 PM,28.4,26.6,93,29.94,7.0,WNW,11.5,21.9,N/A,Snow,Light Snow,290,2012-12-29 23:35:00
6:55 PM,28.4,26.6,93,29.95,5.0,WNW,11.5,17.3,N/A,Snow,Light Snow,300,2012-12-29 23:55:00
7:15 PM,28.4,26.6,93,29.96,5.0,WNW,11.5,24.2,N/A,Snow,Light Snow,290,2012-12-30 00:15:00
7:35 PM,28.4,26.6,93,29.97,4.0,WNW,6.9,20.7,N/A,Snow,Light Snow,300,2012-12-30 00:35:00
7:55 PM,28.4,26.6,93,29.98,4.0,WNW,10.4,18.4,N/A,Snow,Light Snow,290,2012-12-30 00:55:00
8:15 PM,28.4,26.6,93,29.98,4.0,WNW,9.2,18.4,N/A,Snow,Light Snow,300,2012-12-30 01:15:00
8:35 PM,28.4,26.6,93,29.98,5.0,West,9.2,16.1,N/A,Snow,Light Snow,280,2012-12-30 01:35:00
8:55 PM,28.4,26.6,93,29.99,4.0,WNW,12.7,24.2,N/A,Snow,Light Snow,300,2012-12-30 01:55:00
9:15 PM,28.4,26.6,93,30.00,5.0,WNW,8.1,16.1,N/A,Snow,Light Snow,300,2012-12-30 02:15:00
9:35 PM,28.4,26.6,93,30.01,7.0,West,12.7,21.9,N/A,Snow,Light Snow,280,2012-12-30 02:35:00
9:55 PM,28.4,26.6,93,30.02,4.0,West,16.1,23.0,N/A,Snow,Light Snow,280,2012-12-30 02:55:00
10:15 PM,28.4,24.8,86,30.02,7.0,West,13.8,23.0,N/A,,Overcast,280,2012-12-30 03:15:00
10:35 PM,28.4,23.0,80,30.03,10.0,WNW,13.8,25.3,N/A,,Overcast,300,2012-12-30 03:35:00
10:55 PM,28.4,23.0,80,30.05,7.0,WNW,15.0,20.7,N/A,Snow,Light Snow,290,2012-12-30 03:55:00
11:15 PM,26.6,23.0,86,30.06,10.0,WNW,12.7,24.2,N/A,,Overcast,300,2012-12-30 04:15:00
11:35 PM,26.6,21.2,80,30.07,10.0,WNW,16.1,23.0,N/A,Snow,Light Snow,300,2012-12-30 04:35:00
11:55 PM,26.6,23.0,86,30.07,10.0,WNW,15.0,23.0,N/A,Snow,Light Snow,290,2012-12-30 04:55:00